Location: Carnières
(50.1682°N, 3.3474°E)
Time: 03:08:56
(UTC+00:00)

SL-16 R/B - Pass Details

Date: 23 May 2024
Orbit: 842 x 845 km, 71.0° (Epoch: 17 June)

Event Time Altitude Azimuth Distance (km) Brightness Sun altitude
Rises 01:34:33 0° 329° (NNW) 3,417 5.8 -15.0°
Reaches altitude 10° 01:37:01 10° 327° (NNW) 2,478 5.0 -14.9°
Maximum altitude 01:42:40 71° 245° (WSW) 896 2.2 -14.4°
Drops below altitude 10° 01:48:17 10° 163° (SSE) 2,461 4.2 -14.0°
Enters shadow 01:49:02 - 162° (SSE) 2,747 4.5 -13.9°
